Regional Weather Roundup
Issued by NWS

Home | Current Version | Previous Version | Text Only | Print | Product List | Glossary On
Versions: 1 2 3 4 5 6 7 8 9 10 11 12 13 14 15 16 17 18 19 20 21 22 23 24 25 26 27 28 29 30 31 32 33 34 35 36 37 38 39 40 41 42 43 44 45 46 47 48 49 50
000
ASUS43 KDTX 291101
RWRMI
MICHIGAN HOURLY REGIONAL WEATHER ROUNDUP
NATIONAL WEATHER SERVICE DETROIT/PONTIAC MI
700 AM EDT SUN MAY 29 2016

NOTE: "FAIR" INDICATES FEW OR NO CLOUDS BELOW 12,000 FEET WITH NO
SIGNIFICANT WEATHER AND/OR OBSTRUCTION TO VISIBILITY.

MIZ047>049-052>055-059>063-066>070-074>076-081>083-291200-
SOUTHEAST LOWER MICHIGAN

CITY           SKY/WX    TMP DP  RH WIND       PRES   REMARKS
ADRIAN         CLOUDY    69  64  84 SW8       30.04F
ALMA           CLOUDY    68  65  90 SW9       29.99R
ANN ARBOR      CLOUDY    68  63  84 S7        30.03S
BAD AXE        CLOUDY    69  64  83 S8        30.00F
CARO           CLOUDY    70  64  80 S6        29.99F
DETROIT CITY   MOCLDY    70  63  78 S6        30.03F
DETROIT        CLOUDY    69  64  84 S5        30.05S
FLINT          CLOUDY    73  64  73 S7        30.01S
GROSSE ILE     MOCLDY    68  64  88 S6        30.04S FOG
HILLSDALE      CLOUDY    67  64  92 S8        30.04R FOG
HOWELL         CLOUDY    69  65  88 S5        30.02S

CITY           SKY/WX    TMP DP  RH WIND       PRES   REMARKS
JACKSON        CLOUDY    68  66  93 S7        30.02S
LAMBERTVILLE   CLOUDY    71  65  79 S6        30.06R
LANSING        CLOUDY    68  64  87 S8        30.01R
LAPEER         FAIR      70  63  78 SE6       30.02S
MASON          MOCLDY    68  64  89 SE3       30.01R
MONROE         CLOUDY    69  65  88 S7        30.04S
MT. CLEMENS    CLOUDY    68  67  95 S6        30.03S
PONTIAC        CLOUDY    70  64  81 S6        30.03S
PORT HOPE        N/A     71  64  78 VRB5      29.98S
PORT HURON     MOCLDY    66  64  94 S5        30.04S
TRI CITIES     CLOUDY    71  65  81 S9        29.97S
MIDLAND        FAIR      69  65  86 S8        29.97R
SAGINAW HB     CLOUDY    70  64  83 S9        29.98S
$$
MIZ043>046-050>051-056>058-064>065-071>073-077>080-291200-
SOUTHWEST LOWER MICHIGAN

CITY           SKY/WX    TMP DP  RH WIND       PRES   REMARKS
BATTLE CREEK   CLEAR     66  64  93 S10       30.02R
BENTON HARBOR  PTCLDY    66  57  72 S5        30.00R
BIG RAPIDS     CLEAR     63  62  97 CALM      29.97R
COLDWATER      PTCLDY    67  64  91 SW6       30.03R FOG
FREMONT        FAIR      62  62 100 S3        29.97R
HOLLAND        PTCLDY    66  58  75 S6        29.99R
GRAND RAPIDS   MOCLDY    69  64  84 S8        29.99R
IONIA          FAIR      68  63  82 S8        29.99R
KALAMAZOO      CLEAR     68  63  84 S8        30.01R
LUDINGTON      MOCLDY    64  60  87 S7        29.94R
MARSHALL       CLOUDY    67  65  90 CALM      30.02R
MOUNT PLEASANT CLOUDY    68  64  89 S5        29.98R
MUSKEGON       MOCLDY    66  55  67 S15       29.97R
SOUTH HAVEN    PTCLDY    65  62  90 S3        29.99R
$$
MIZ016>042-291200-
NORTHERN LOWER MICHIGAN

CITY           SKY/WX    TMP DP  RH WIND       PRES   REMARKS
ALPENA         CLOUDY    68  63  84 SE7       29.93S
BEAVER ISLAND  PTCLDY    63  59  86 S5        29.90S
BELLAIRE       PTCLDY    65  63  93 CALM      29.93R
CADILLAC       CLOUDY    64  60  88 SW8       29.96S
CHARLEVOIX     PTCLDY    68  61  77 S8        29.94R
FRANKFORT      PTCLDY    64  61  90 S5        29.91S
GAYLORD        CLEAR     66  62  87 S7        29.95R
GRAYLING       MOCLDY    66  63  89 S5        29.96S
HARBOR SPRINGS PTCLDY    66  62  86 CALM      29.91R
HOUGHTON LAKE  CLOUDY    67  62  84 S8        29.97R
MANISTEE       PTCLDY    61  55  82 CALM      29.94R
OSCODA         PTCLDY    70  65  84 S10       29.95S
PELLSTON       PTCLDY    63  60  90 CALM      29.91R
ROGERS CITY    CLOUDY    69  62  79 S8        29.92R
TRAVERSE CITY  PTCLDY    67  59  75 VRB3      29.91R
$$
MIZ007>008-015-291200-
EASTERN UPPER MICHIGAN

CITY           SKY/WX    TMP DP  RH WIND       PRES   REMARKS
KINROSS          N/A     61  61 100 CALM      29.90R
MACKINAC ISLAN CLEAR     59  59 100 S5        29.91R
NEWBERRY       CLEAR     58  55  92 S9        29.89R
S. S. MARIE    CLEAR     62  59  90 E5        29.89S FOG
MUNISING         N/A     62  59  90 S8        29.83R
$$
MIZ004>006-011>014-085-291200-
CENTRAL UPPER MICHIGAN

CITY           SKY/WX    TMP DP  RH WIND       PRES   REMARKS
MANISTIQUE     PTCLDY    55  54  96 S7        29.88R
ESCANABA       CLOUDY    57  55  94 S6        29.86
MENOMINEE      CLEAR     63  62  97 SW7       29.86R
SAWYER-GWINN   PTCLDY    61  59  94 S12       29.83R
$$
MIZ001>003-009>011-084-291200-
WESTERN UPPER MICHIGAN

CITY           SKY/WX    TMP DP  RH WIND       PRES   REMARKS
IRON MOUNTAIN  CLEAR     61  60  97 S6        29.82R
HOUGHTON       FOG       57  56  96 E3        29.76S VSB 1/4
COPPER HARBOR    N/A     50  49  96 S3        29.76S
IRONWOOD       CLOUDY    61  59  94 SW9       29.76R
$$

ABBREVIATIONS USED IN REMARKS
   TC - TEMPERATURE IN CELSIUS
  WCI - WIND CHILL INDEX
   HX - HEAT INDEX
  VSB - VISIBILITY




USA.gov is the U.S. government's official web portal to all federal, state and local government web resources and services.